Olivia, MN

10:02 PM CDT on April 23, 2017 (GMT -0500)
Olivia Regional

Weather History for KOVL - April, 2014

Change the Weather History Date:

Friday, April 18, 2014

  Actual Average (KRWF) Record (KRWF)
Temperature  
Mean Temperature 37 °F -  
Max Temperature 50 °F 60 °F 91 °F (1985)
Min Temperature 24 °F 39 °F 17 °F (1953)
Degree Days  
Heating Degree Days 28    
Moisture  
Dew Point 30 °F    
Average Humidity 74    
Maximum Humidity 87    
Minimum Humidity 54    
Precipitation  
Precipitation 0.00 in - - ()
Sea Level Pressure  
Sea Level Pressure 30.23 in    
Wind  
Wind Speed 6 mph (ESE)    
Max Wind Speed 20 mph    
Max Gust Speed 24 mph    
Visibility 10 miles    
Events      
Averages and records for this station are not official NWS values.
T = Trace of Precipitation, MM = Missing Value Source: NWS Daily Summary

Daily Weather History Graph

Daily Weather History Graph

Search for Another Location

Airport or City:

Trip Planner

Search our weather history database for the weather conditions in past years. The results will help you decide how hot, cold, wet, or windy it might be!

Date:

Astronomy

Apr. 18, 2014 Rise Set
Actual Time 6:30 AM CDT 8:09 PM CDT
Civil Twilight 5:59 AM CDT 8:39 PM CDT
Nautical Twilight 5:22 AM CDT 9:17 PM CDT
Astronomical Twilight 4:42 AM CDT 9:58 PM CDT
Moon No Moon Rise 8:47 AM CDT (4/18)
Length of Visible Light 14h 40m
Length of Day
13h 38m
Waning Gibbous, 87% of the Moon is Illuminated
Apr 18
Waning Gibbous
Apr 22
Last Quarter
Apr 29
New
May 6
First Quarter
May 14
Full

Hourly Weather History & Observations

Time (CDT) Temp. Windchill Dew Point Humidity Pressure Visibility Wind Dir Wind Speed Gust Speed Precip Events Conditions
12:13 AM 28.4 °F - 24.8 °F 86% 30.31 in 10.0 mi Calm Calm - N/A   Clear
12:33 AM 24.8 °F - 21.2 °F 86% 30.31 in 10.0 mi Calm Calm - N/A   Clear
12:53 AM 26.6 °F - 23.0 °F 86% 30.31 in 10.0 mi Calm Calm - N/A   Clear
1:12 AM 26.6 °F - 23.0 °F 86% 30.31 in 10.0 mi Calm Calm - N/A   Clear
1:33 AM 26.6 °F - 23.0 °F 86% 30.31 in 10.0 mi Calm Calm - N/A   Clear
1:53 AM 26.6 °F - 23.0 °F 86% 30.30 in 10.0 mi Calm Calm - N/A   Scattered Clouds
2:13 AM 24.8 °F - 21.2 °F 86% 30.30 in 10.0 mi Calm Calm - N/A   Mostly Cloudy
2:53 AM 26.6 °F - 23.0 °F 86% 30.28 in 10.0 mi Calm Calm - N/A   Overcast
3:13 AM 26.6 °F - 23.0 °F 86% 30.29 in 10.0 mi Calm Calm - N/A   Overcast
3:53 AM 28.4 °F - 24.8 °F 86% 30.30 in 10.0 mi Calm Calm - N/A   Overcast
4:13 AM 28.4 °F - 24.8 °F 86% 30.30 in 7.0 mi Calm Calm - N/A   Overcast
4:33 AM 28.4 °F - 24.8 °F 86% 30.29 in 10.0 mi Calm Calm - N/A   Overcast
4:53 AM 26.6 °F 22.6 °F 23.0 °F 86% 30.29 in 7.0 mi ENE 3.5 mph - N/A   Overcast
5:13 AM 30.2 °F - 26.6 °F 86% 30.29 in 10.0 mi Calm Calm - N/A   Overcast
5:33 AM 30.2 °F - 26.6 °F 86% 30.30 in 10.0 mi Calm Calm - N/A   Overcast
5:53 AM 30.2 °F - 26.6 °F 86% 30.30 in 10.0 mi Calm Calm - N/A   Overcast
6:13 AM 30.2 °F 26.7 °F 26.6 °F 86% 30.30 in 10.0 mi ENE 3.5 mph - N/A   Overcast
6:33 AM 30.2 °F 26.7 °F 26.6 °F 86% 30.31 in 10.0 mi East 3.5 mph - N/A   Overcast
6:53 AM 30.2 °F 24.3 °F 26.6 °F 86% 30.31 in 10.0 mi ESE 5.8 mph - N/A   Overcast
7:13 AM 30.2 °F 24.3 °F 24.8 °F 80% 30.31 in 10.0 mi East 5.8 mph - N/A   Overcast
7:33 AM 30.2 °F 23.4 °F 24.8 °F 80% 30.31 in 10.0 mi East 6.9 mph - N/A   Overcast
7:53 AM 30.2 °F 23.4 °F 26.6 °F 86% 30.31 in 10.0 mi East 6.9 mph - N/A   Overcast
8:13 AM 30.2 °F 23.4 °F 26.6 °F 86% 30.31 in 10.0 mi East 6.9 mph - N/A   Overcast
8:33 AM 32.0 °F 24.2 °F 26.6 °F 80% 30.31 in 10.0 mi East 9.2 mph - N/A   Overcast
8:52 AM 32.0 °F 23.0 °F 26.6 °F 80% 30.31 in 10.0 mi East 11.5 mph - N/A   Overcast
9:13 AM 33.8 °F 25.3 °F 28.4 °F 81% 30.31 in 10.0 mi ESE 11.5 mph - N/A   Overcast
9:33 AM 33.8 °F 25.8 °F 28.4 °F 81% 30.31 in 10.0 mi ESE 10.4 mph - N/A   Overcast
9:53 AM 33.8 °F 27.0 °F 28.4 °F 81% 30.32 in 10.0 mi ESE 8.1 mph - N/A   Overcast
10:12 AM 33.8 °F 26.4 °F 30.2 °F 87% 30.31 in 10.0 mi ESE 9.2 mph - N/A   Overcast
10:33 AM 35.6 °F 28.6 °F 32.0 °F 87% 30.31 in 10.0 mi ESE 9.2 mph - N/A   Mostly Cloudy
10:53 AM 35.6 °F 29.2 °F 32.0 °F 87% 30.31 in 10.0 mi ESE 8.1 mph - N/A   Overcast
11:13 AM 37.4 °F 30.3 °F 32.0 °F 81% 30.31 in 10.0 mi SE 10.4 mph - N/A   Mostly Cloudy
11:33 AM 39.2 °F 32.5 °F 32.0 °F 75% 30.30 in 7.0 mi ESE 10.4 mph 17.3 mph N/A   Mostly Cloudy
11:53 AM 39.2 °F 32.0 °F 32.0 °F 75% 30.30 in 10.0 mi ESE 11.5 mph - N/A   Scattered Clouds
12:13 PM 39.2 °F 32.0 °F 32.0 °F 75% 30.29 in 10.0 mi ESE 11.5 mph - N/A   Scattered Clouds
12:32 PM 39.2 °F 31.6 °F 32.0 °F 75% 30.28 in 10.0 mi ESE 12.7 mph - N/A   Mostly Cloudy
12:53 PM 39.2 °F 32.0 °F 32.0 °F 75% 30.28 in 10.0 mi ESE 11.5 mph - N/A   Overcast
1:13 PM 41.0 °F 34.3 °F 32.0 °F 70% 30.26 in 10.0 mi ESE 11.5 mph - N/A   Scattered Clouds
1:33 PM 41.0 °F 33.9 °F 32.0 °F 70% 30.26 in 10.0 mi ESE 12.7 mph - N/A   Scattered Clouds
1:53 PM 42.8 °F 36.6 °F 32.0 °F 66% 30.25 in 10.0 mi ESE 11.5 mph - N/A   Mostly Cloudy
2:13 PM 42.8 °F 35.8 °F 32.0 °F 66% 30.24 in 10.0 mi ESE 13.8 mph - N/A   Scattered Clouds
2:33 PM 44.6 °F 37.4 °F 32.0 °F 61% 30.23 in 10.0 mi ESE 16.1 mph 20.7 mph N/A   Scattered Clouds
2:53 PM 46.4 °F 39.8 °F 33.8 °F 62% 30.21 in 10.0 mi ESE 16.1 mph 20.7 mph N/A   Scattered Clouds
3:13 PM 46.4 °F 40.1 °F 33.8 °F 62% 30.20 in 10.0 mi ESE 15.0 mph 21.9 mph N/A   Clear
3:32 PM 46.4 °F 40.4 °F 33.8 °F 62% 30.19 in 10.0 mi ESE 13.8 mph - N/A   Clear
3:53 PM 50.0 °F - 37.4 °F 62% 30.17 in 10.0 mi ESE 12.7 mph 19.6 mph N/A   Clear
4:13 PM 50.0 °F - 35.6 °F 58% 30.16 in 10.0 mi ESE 16.1 mph 21.9 mph N/A   Clear
4:33 PM 50.0 °F - 35.6 °F 58% 30.15 in 10.0 mi ESE 17.3 mph 21.9 mph N/A   Clear
4:53 PM 50.0 °F - 35.6 °F 58% 30.15 in 10.0 mi ESE 18.4 mph - N/A   Clear
5:13 PM 50.0 °F - 33.8 °F 54% 30.14 in 10.0 mi ESE 16.1 mph 24.2 mph N/A   Clear
5:33 PM 50.0 °F - 33.8 °F 54% 30.13 in 10.0 mi ESE 16.1 mph - N/A   Unknown
5:53 PM 50.0 °F - 35.6 °F 58% 30.13 in 10.0 mi SE 17.3 mph 21.9 mph N/A   Clear
6:14 PM 50.0 °F - 33.8 °F 54% 30.11 in 10.0 mi ESE 18.4 mph 24.2 mph N/A   Clear
6:33 PM 50.0 °F - 35.6 °F 58% 30.11 in 10.0 mi ESE 19.6 mph - N/A   Clear
6:53 PM 50.0 °F - 35.6 °F 58% 30.10 in 10.0 mi ESE 16.1 mph 24.2 mph N/A   Clear
7:13 PM 50.0 °F - 35.6 °F 58% 30.09 in 10.0 mi ESE 13.8 mph - N/A   Clear
7:33 PM 50.0 °F - 37.4 °F 62% 30.09 in 10.0 mi ESE 13.8 mph - N/A   Clear
7:53 PM 46.4 °F 40.7 °F 35.6 °F 66% 30.09 in 10.0 mi ESE 12.7 mph 17.3 mph N/A   Clear
8:13 PM 46.4 °F 40.4 °F 35.6 °F 66% 30.09 in 10.0 mi ESE 13.8 mph - N/A   Clear
8:53 PM 46.4 °F 40.1 °F 35.6 °F 66% 30.08 in 10.0 mi ESE 15.0 mph 20.7 mph N/A   Clear
9:13 PM 46.4 °F 40.1 °F 35.6 °F 66% 30.08 in 10.0 mi ESE 15.0 mph 20.7 mph N/A   Clear
9:53 PM 44.6 °F 37.2 °F 33.8 °F 66% 30.07 in 10.0 mi ESE 17.3 mph 23.0 mph N/A   Clear
10:13 PM 44.6 °F 37.4 °F 35.6 °F 71% 30.08 in 10.0 mi ESE 16.1 mph 24.2 mph N/A   Clear
10:33 PM 44.6 °F 36.9 °F 35.6 °F 71% 30.07 in 10.0 mi ESE 18.4 mph 24.2 mph N/A   Clear
10:53 PM 42.8 °F 35.4 °F 33.8 °F 70% 30.07 in 10.0 mi ESE 15.0 mph 21.9 mph N/A   Clear
11:13 PM 42.8 °F 35.8 °F 35.6 °F 76% 30.07 in 10.0 mi ESE 13.8 mph 18.4 mph N/A   Clear
11:33 PM 42.8 °F 35.8 °F 33.8 °F 70% 30.06 in 10.0 mi ESE 13.8 mph 19.6 mph N/A   Clear
11:53 PM 42.8 °F 35.1 °F 33.8 °F 70% 30.06 in 10.0 mi ESE 16.1 mph 20.7 mph N/A   Clear